Satellite-Ground Cal/Val Site Overpasses Predictions

Prediction of Satellite NPP Overpassing Cal/Val Site: Antarctic Dome C

Ground Cal/Val Site Location: Latitude: -75.10, Longitude: 123.35; Satellite-Ground Site NADIR distance within 100 km.

Table of predicted overpasses for the next 14.0 days since TLE Epoch: 12/25/2016
Interval Starting Time Ending Time Minimum Distance Time Minimum Distance (km)
1 12/28/2016 14:55:27 12/28/2016 14:55:55 12/28/2016 14:55:41 22.74
2 12/29/2016 14:36:43 12/29/2016 14:36:58 12/29/2016 14:36:51 84.39
3 12/30/2016 07:38:16 12/30/2016 07:38:43 12/30/2016 07:38:30 39.33
4 12/31/2016 07:19:30 12/31/2016 07:19:50 12/31/2016 07:19:40 70.62
5 01/02/2017 15:01:45 01/02/2017 15:02:08 01/02/2017 15:01:56 59.84
6 01/03/2017 14:42:53 01/03/2017 14:43:18 01/03/2017 14:43:06 49.47
7 01/04/2017 07:44:35 01/04/2017 07:44:54 01/04/2017 07:44:45 74.47
8 01/05/2017 07:25:41 01/05/2017 07:26:08 01/05/2017 07:25:54 33.42
9 01/07/2017 15:08:08 01/07/2017 15:08:13 01/07/2017 15:08:11 97.62


<
